Location: Unspecified
(41.9031°N, 12.4386°E)
Time: 02:08:25
(UTC+01:00)

ISS - Visible Passes

Search period start: 19 December 2018 00:00
Search period end: 29 December 2018 00:00
Orbit: 401 x 408 km, 51.6° (Epoch: 19 December)

Date Brightness Start Highest point End Pass type
(mag) Time Alt. Az. Time Alt. Az. Time Alt. Az.
23 Dec -0.7 06:11:37 10° S 06:13:50 17° SE 06:16:03 10° E visible
24 Dec -3.6 06:54:30 10° SW 06:57:47 77° SE 07:01:04 10° ENE visible
25 Dec -2.4 06:02:30 10° SSW 06:05:36 39° SE 06:08:42 10° ENE visible
26 Dec -1.4 05:13:14 21° SE 05:13:29 21° SE 05:16:04 10° E visible
26 Dec -3.5 06:46:34 10° WSW 06:49:47 48° NNW 06:52:58 10° NE visible
27 Dec -4.0 05:56:44 51° WSW 05:57:28 85° NW 06:00:46 10° NE visible
28 Dec -1.2 05:07:12 20° ENE 05:07:12 20° ENE 05:08:26 10° ENE visible
28 Dec -2.7 06:39:54 16° WNW 06:41:51 27° NNW 06:44:44 10° NE visible
